Preview of NWS' New Version of Forecast
This preview is not operational and should not be used for support decisions.

Regional Weather Roundup (RWR)

Issued by National Weather Service (NWS)

                            
000
ASUS46 KSEW 141710
RWRWA 

WASHINGTON REGIONAL WEATHER ROUNDUP
NATIONAL WEATHER SERVICE SEATTLE WA
1000 AM PDT SAT SEP 14 2019

NOTE:"FAIR" INDICATES FEW OR NO CLOUDS BELOW 12,000 FEET WITH NO 
SIGNIFICANT WEATHER AND/OR OBSTRUCTIONS TO VISIBILITY.

WAZ507-509-555>559-141800-
SEATTLE, TACOMA, EVERETT, AND VICINITY
  
CITY           SKY/WX    TMP DP  RH WIND       PRES   REMARKS
EVERETT        CLOUDY    62  56  80 S15       29.99F                  
BOEING FIELD   CLOUDY    64  56  75 S7        30.01S                  
RENTON         CLOUDY    64  57  78 S7        30.00F HAZE             
SEATAC AIRPORT CLOUDY    63  56  78 S9        30.01F                  
JBLM-MCCHORD   CLOUDY    62  62  99 S7        30.01F                  
PUYALLUP       PTSUNNY   64  57  77 SW6       30.02F                  
BREMERTON      CLOUDY    60  57  89 S12       29.99F                  
JBLM-FT LEWIS  MOSUNNY   63  62  99 S7        30.01F                  
TACOMA NARROWS CLOUDY    60  55  83 CALM      30.02F                  
$$
 
WAZ001-503-506-510-514-515-141800-
NORTH INTERIOR
  
CITY           SKY/WX    TMP DP  RH WIND       PRES   REMARKS
BELLINGHAM     CLOUDY    63  57  81 S9        29.94F                  
FRIDAY HARBOR  CLOUDY    58  57  97 SE5       29.96F FOG              
EASTSOUND      CLOUDY    61  59  94 S9        29.93F                  
PORT ANGELES   CLOUDY    58  57  97 CALM      29.95F                  
EDIZ HOOK      PTSUNNY   54  54  99 CALM      29.94F FOG              
PORT TOWNSEND  CLOUDY    61  59  94 SE7       29.94F                  
NAS WHIDBEY    CLOUDY    63  59  87 SE9       29.99F                  
ARLINGTON      LGT RAIN  63  57  81 SE13      29.98F                  
BURLINGTON     CLOUDY    63  61  94 SE8       29.97F                  
$$
 
WAZ020-022-039-040-504-511-512-141800-
SOUTHWEST INTERIOR
  
CITY           SKY/WX    TMP DP  RH WIND       PRES   REMARKS
SHELTON        CLOUDY    63  57  81 SW6       29.98F                  
OLYMPIA        CLOUDY    61  56  83 SW7       30.02F                  
CHEHALIS       CLOUDY    61  59  94 S6        30.02F                  
KELSO          CLOUDY    66  58  75 SE3       30.03F                  
VANCOUVER      MOSUNNY   64  57  78 S5        30.03F                  
SCAPPOOSE, OR  MOSUNNY   63  59  87 SE6       30.03F                  
PORTLAND, OR   PTSUNNY   65  57  75 VRB5      30.04F                  
$$
 
WAZ021-516-517-141800-
WASHINGTON COAST
  
CITY           SKY/WX    TMP DP  RH WIND       PRES   REMARKS
FORKS          LGT RAIN  61  60  97 S10G20    29.94F FOG              
HOQUIAM        CLOUDY    63  62  97 SW8       30.00F                  
ASTORIA, OR    CLOUDY    64  59  83 VRB6      30.01F                  
$$
 
WAZ019-023-024-040-567>569-141800-
CASCADE MOUNTAINS AND COLUMBIA GORGE
  
CITY           SKY/WX    TMP DP  RH WIND       PRES   REMARKS
STAMPEDE PASS  NOT AVBL                                               
TROUTDALE, OR  CLOUDY    64  56  75 SE5       30.04F                  
HOOD RIVER, OR PTSUNNY   63  52  67 CALM      30.03F                  
THE DALLES, OR PTSUNNY   66  54  65 NW6       30.00F                  
$$

WAZ026-027-041>044-520-521-141800-
EAST SLOPES
  
CITY           SKY/WX    TMP DP  RH WIND       PRES   REMARKS
OMAK           CLOUDY    64  48  56 S9        29.95F                  
WENATCHEE      CLOUDY    62  49  62 NE3       29.98S                  
ELLENSBURG     CLOUDY    65  48  54 W12       30.00F                  
YAKIMA         CLOUDY    66  49  54 VRB3      29.99F                  
SUNNYSIDE ARPT PTSUNNY   64  54  70 CALM      29.99F                  
YAKIMA TC      FAIR      63  48  57 CALM      29.98F                  
$$

WAZ028-034-035-141800-
COLUMBIA BASIN
  
CITY           SKY/WX    TMP DP  RH WIND       PRES   REMARKS
EPHRATA        CLOUDY    66  48  52 CALM      29.97F                  
MOSES LAKE     CLOUDY    66  51  58 S7        29.98F                  
PASCO          PTSUNNY   72  51  47 S8        29.98F                  
RICHLAND ARPT  PTSUNNY   70  53  55 CALM      29.98                   
HERMISTON, OR  PTSUNNY   70  52  52 SW8       29.99F                  
$$

WAZ036>038-141800-
NORTHEAST WASHINGTON
  
CITY           SKY/WX    TMP DP  RH WIND       PRES   REMARKS
SPOKANE GEIGER CLOUDY    62  46  55 S8        30.03S                  
SPOKANE FELTS  CLOUDY    65  47  52 SW9       30.03F                  
FAIRCHILD AFB  NOT AVBL                                               
COEURDALENE,ID CLOUDY    63  47  55 S10       30.05S                  
DEER PARK      CLOUDY    60  47  61 S6        30.04S                  
$$

WAZ029>033-141800-
SOUTHEAST WASHINGTON
  
CITY           SKY/WX    TMP DP  RH WIND       PRES   REMARKS
PULLMAN        PTSUNNY   66  46  48 VRB5      30.07F                  
LEWISTON, ID   MOSUNNY   68  48  48 MISG      30.02F                  
WALLA WALLA    PTSUNNY   69  47  45 S5        30.02S                  
PENDLETON, OR  PTSUNNY   69  49  48 NW10      30.01F                  
$$